SCP
0 0 0 0 0 0 0 0 0 0 0 0 0 0 0 0 0 0 0 0 0 0 0 0 0 0 0 1 1 1 1 1 1 0 0 0 0 0 1 1 1 1 1 0
0 0 0 0 0 0 0 0 0 0 0 0 0 0 0 0 0 0 0 0 0 0 0 0 0 0 0 1 1 1 1 1 1 0 0 0 0 0 0 1 1 1 1 1
0 0 0 0 0 0 0 0 0 0 0 0 0 0 0 0 0 0 0 0 0 0 0 0 0 0 0 1 1 2 2 1 1 0 0 0 0 0 0 0 1 1 1 1
0 0 0 0 0 0 0 0 0 0 0 0 0 0 0 0 0 0 0 0 0 0 0 0 0 0 0 1 1 2 2 2 1 0 0 0 0 0 0 0 0 0 1 1
0 0 0 0 0 0 0 0 0 0 0 0 0 0 0 0 0 0 0 0 0 0 0 0 0 0 0 1 2 3 3 2 1 1 0 0 0 0 0 0 0 0 0 1
0 0 0 0 0 0 0 0 0 0 0 0 0 0 0 0 0 0 0 0 0 0 0 0 0 0 0 1 2 3 3 2 1 1 0 0 0 0 0 0 0 0 0 0
0 0 0 0 0 0 0 0 0 0 0 0 0 0 0 0 0 0 0 0 0 0 0 0 0 0 0 1 2 3 3 2 1 1 0 0 0 0 0 0 0 0 0 0
0 0 0 0 0 0 0 0 0 0 0 0 0 0 0 0 0 0 0 0 0 0 0 0 0 0 0 1 2 3 3 2 1 0 0 0 0 0 0 0 0 0 0 0
0 0 0 0 0 0 0 0 0 0 0 0 0 0 0 0 0 0 0 0 0 0 0 0 0 0 0 1 2 2 2 2 1 0 0 0 0 0 0 0 0 0 0 0
0 0 0 0 0 0 0 0 0 0 0 0 0 0 0 0 0 0 0 0 0 0 0 0 0 0 0 1 2 2 2 2 1 1 0 0 0 0 0 0 0 0 0 0
0 0 0 0 0 0 0 0 0 0 0 0 0 0 0 0 0 0 0 0 0 0 0 0 0 0 0 1 2 2 2 2 1 1 0 0 0 0 0 0 0 0 0 0
0 0 0 0 0 0 0 0 0 0 0 0 0 0 0 0 0 0 0 0 0 0 0 0 0 0 0 1 2 2 2 2 1 1 0 0 0 0 0 0 0 0 0 0
0 0 0 0 0 0 0 0 0 0 0 0 0 0 0 0 0 0 0 0 0 0 0 0 0 0 0 1 2 2 2 1 1 0 0 0 0 0 0 0 0 0 0 0
0 0 0 0 0 0 0 0 0 0 0 0 0 0 0 0 0 0 0 0 0 0 0 0 0 0 0 1 1 1 1 1 1 0 0 0 0 0 0 0 0 0 0 0
0 0 0 0 0 0 0 0 0 0 0 0 0 0 0 0 0 0 0 0 0 0 0 0 0 0 0 1 1 1 1 1 0 0 0 0 0 0 0 0 0 0 0 0
0 0 0 0 0 0 0 0 0 0 0 0 0 0 0 0 0 0 0 0 0 0 0 0 0 0 0 1 1 1 1 0 0 0 0 0 0 0 0 0 0 0 0 0
0 0 0 0 0 0 0 0 0 0 0 0 0 0 0 0 0 0 0 0 0 0 0 0 0 0 0 1 1 1 1 0 0 0 0 0 0 0 0 0 0 0 0 0
0 0 0 0 0 0 0 0 0 0 0 0 0 0 0 0 0 0 0 0 0 0 0 0 0 0 0 1 1 1 0 0 0 0 0 0 0 0 0 0 0 0 0 0
0 0 0 0 0 0 0 0 0 0 0 0 0 0 0 0 0 0 0 0 0 0 0 0 0 0 0 0 1 0 0 0 0 0 0 0 0 0 0 0 0 0 0 0
0 0 0 0 0 0 0 0 0 0 0 0 0 0 0 0 0 0 0 0 0 0 0 0 0 0 0 0 0 0 0 0 0 0 0 0 0 0 0 0 0 0 0 0
0 0 0 0 0 0 0 0 0 0 0 0 0 0 0 0 0 0 0 0 0 0 0 0 0 0 0 0 0 0 0 0 0 0 0 0 0 0 0 0 0 0 0 0
0 0 0 0 0 0 0 0 0 0 0 0 0 0 0 0 0 0 0 0 0 0 0 0 0 0 0 0 0 0 0 0 0 0 0 0 0 0 0 0 0 0 0 0
0 0 0 0 0 0 0 0 0 0 0 0 0 0 0 0 0 0 0 0 0 0 0 0 0 0 0 0 0 0 0 0 0 0 0 0 0 0 0 0 0 0 0 0
0 0 0 0 0 0 0 0 0 0 0 0 0 0 0 0 0 0 0 0 0 0 0 0 0 0 0 0 0 0 0 0 0 0 0 0 0 0 0 0 0 0 0 0
0 0 0 0 0 0 0 0 0 0 0 0 0 0 0 0 0 0 0 0 0 0 0 0 0 0 0 0 0 0 0 0 0 0 0 0 0 0 0 0 0 0 0 0
0 0 0 0 0 0 0 0 0 0 0 0 0 0 0 0 0 0 0 0 0 0 0 0 0 0 0 0 0 0 0 0 0 0 0 0 0 0 0 0 0 0 0 0
Wind_Speed
1 2 4 6 8 6 4 5 7 7 3 3 9 13 15 9 7 8 8 7 8 9 7 5 5 5 6 6 7 8 9 8 7 5 5 4 4 4 4 4 5 6 5 5
2 4 7 5 5 5 5 6 7 6 2 3 7 13 13 9 8 9 9 9 8 6 4 4 5 5 6 7 8 8 9 9 9 7 5 4 4 3 3 3 4 6 6 6
5 5 4 3 4 5 7 7 6 5 5 4 5 10 8 6 4 5 6 7 7 7 6 5 5 5 5 6 8 8 8 8 8 7 4 3 2 2 2 3 4 5 6 6
4 4 3 3 5 4 7 5 5 3 2 5 1 7 10 5 4 5 5 5 6 5 5 4 4 4 5 6 6 6 7 7 7 8 7 8 6 6 6 5 4 4 5 6
4 2 3 4 4 4 5 3 4 4 3 4 3 5 11 3 5 6 6 6 5 5 5 5 5 5 4 4 4 5 5 5 6 7 8 8 6 5 3 3 4 4 4 5
4 2 2 3 2 3 1 2 1 0 1 6 7 6 9 4 6 6 5 4 4 3 3 3 3 2 2 2 2 3 5 5 5 6 7 8 8 6 5 5 5 4 3 3
3 3 1 0 0 1 1 3 2 2 1 7 3 6 10 7 6 6 5 4 4 3 3 2 2 2 2 2 3 3 4 4 4 5 6 7 7 7 8 7 6 5 3 3
3 4 4 2 3 3 3 5 5 4 5 5 2 8 8 5 3 1 2 2 2 2 2 2 3 3 3 3 3 3 4 4 4 5 5 5 6 5 5 6 5 5 4 4
5 5 1 2 2 3 3 4 3 2 1 3 6 6 7 2 2 1 1 1 2 3 3 3 3 3 3 3 3 4 4 3 4 4 4 4 5 5 5 4 4 4 4 3
4 4 3 1 0 1 2 3 3 3 3 5 6 5 5 3 3 2 1 2 3 3 2 2 2 2 3 3 3 3 3 4 3 3 3 3 3 4 4 4 4 4 4 3
2 3 2 1 5 6 3 3 3 3 3 4 4 6 4 4 4 4 5 4 3 2 2 2 2 2 1 1 2 2 2 2 2 2 2 2 2 2 3 3 4 4 3 4
3 3 3 6 3 2 4 5 6 4 5 4 4 8 2 1 2 3 3 3 2 2 1 1 1 1 1 1 1 2 2 2 2 2 2 2 2 2 2 2 3 3 3 3
4 4 0 4 2 1 3 4 5 3 2 4 5 8 3 4 4 3 2 2 2 2 1 1 1 0 0 1 1 1 2 2 1 2 2 2 2 2 2 2 2 2 2 2
4 4 7 9 7 5 5 6 6 5 5 6 10 10 7 6 6 6 5 4 2 1 1 0 0 1 1 0 0 1 1 1 1 2 2 1 2 2 2 2 2 2 2 2
4 5 6 8 6 4 7 8 8 10 10 10 10 10 11 8 7 6 4 3 2 2 1 0 0 0 1 1 0 0 0 0 1 2 2 2 1 1 1 1 1 1 2 2
3 4 3 6 6 7 9 10 10 12 10 11 11 14 9 6 4 4 3 2 2 3 2 2 1 1 1 1 1 1 1 1 1 1 1 1 1 1 1 1 1 1 1 1
4 4 3 6 5 4 11 12 12 9 8 9 13 13 6 5 5 5 4 3 3 3 3 2 2 2 2 1 1 1 1 0 1 1 1 0 0 0 1 0 1 1 1 1
6 5 3 2 1 10 10 4 9 10 11 11 9 7 6 6 5 4 2 2 3 3 3 2 2 2 1 1 1 0 1 1 1 0 0 0 0 1 0 0 1 1 0 1
8 7 4 4 6 11 9 4 5 7 8 8 11 9 4 2 2 2 1 1 1 2 2 2 2 2 1 1 1 1 1 1 1 1 1 1 1 1 1 1 1 1 1 1
4 5 5 4 5 10 7 3 3 3 7 6 7 7 4 2 2 4 1 2 2 3 2 1 2 1 2 2 1 1 1 1 1 2 2 1 1 1 1 2 1 1 1 1
4 4 7 8 9 11 6 2 3 5 7 2 3 4 5 4 4 2 1 2 2 2 2 2 1 1 2 2 1 1 1 1 2 2 2 1 1 1 1 1 1 0 0 1
10 8 8 7 9 12 3 4 6 5 1 0 1 1 2 1 0 0 1 1 2 3 3 3 2 2 2 2 1 0 1 2 2 2 2 1 1 1 1 1 1 0 1 1
9 9 7 9 8 3 3 4 3 1 1 1 1 1 2 2 1 1 1 1 1 1 2 2 2 2 2 2 1 1 2 2 2 1 1 2 2 1 1 1 1 1 1 1
4 3 4 4 6 3 2 2 1 0 1 1 1 2 2 2 2 1 1 1 1 2 2 2 2 2 2 3 2 2 2 2 1 1 1 1 1 1 1 1 1 1 1 2
5 4 4 5 4 2 3 3 2 1 0 0 0 1 2 2 2 1 1 1 1 2 2 1 1 1 2 2 2 2 2 1 1 1 1 1 1 1 1 1 2 2 2 3
4 6 7 7 6 5 5 3 2 1 1 1 1 0 0 2 2 1 1 1 1 2 2 2 2 1 2 2 2 2 2 1 1 1 1 1 1 1 1 1 2 2 2 3
Wind_Direction
129 103 217 224 219 229 232 232 250 257 261 235 246 260 268 266 249 246 244 239 236 238 240 226 211 198 184 182 182 183 181 179 170 169 174 178 193 194 191 194 192 192 188 183
74 240 241 246 246 246 251 253 257 278 287 257 270 272 269 257 238 234 233 232 231 231 236 225 213 197 189 187 188 188 187 183 181 184 181 179 173 186 193 190 194 197 192 190
200 240 238 224 244 249 253 236 239 260 309 290 300 292 273 269 241 242 236 227 224 218 220 221 213 206 194 193 192 191 190 186 185 178 162 142 131 136 176 198 202 203 198 195
239 265 253 226 236 227 253 236 235 242 276 280 225 285 282 263 271 254 249 237 230 227 218 213 208 208 204 204 194 188 183 182 182 175 174 175 183 195 202 196 196 197 197 198
239 238 217 222 236 218 242 252 228 233 225 276 250 240 280 288 259 252 246 241 236 224 212 210 210 211 206 195 185 183 176 179 181 182 184 185 194 200 187 178 185 196 199 198
244 249 223 227 249 226 256 12 5 21 149 259 233 211 272 244 234 246 246 248 240 228 219 217 218 201 185 170 168 170 173 183 181 184 187 191 192 187 179 186 190 198 201 203
272 258 253 234 293 296 127 92 17 335 268 248 230 222 251 249 246 228 230 236 236 227 212 207 200 180 175 168 173 176 177 188 185 186 194 197 195 188 190 190 192 191 197 209
214 264 222 215 207 206 217 166 174 214 241 277 264 239 255 256 266 244 207 210 219 225 217 212 204 190 191 188 183 180 184 192 188 190 200 202 193 190 196 193 188 193 200 209
198 240 262 234 225 174 183 206 190 162 264 272 258 266 291 286 317 283 232 219 233 231 222 212 206 194 194 194 194 188 184 188 194 195 192 196 194 192 192 190 189 194 200 201
179 233 264 278 33 258 200 160 125 163 201 254 274 254 248 254 257 281 276 258 271 270 247 221 215 209 204 200 193 178 180 189 193 189 189 190 193 193 188 181 188 193 197 195
180 195 263 255 205 202 182 195 182 180 198 202 258 263 230 226 226 228 241 247 253 265 269 237 222 211 195 181 170 169 175 172 176 183 179 171 181 181 177 187 198 195 194 194
179 160 237 243 248 233 211 199 171 187 231 219 236 265 292 284 263 239 252 275 281 286 289 280 251 148 136 163 174 174 176 174 188 182 169 176 170 163 174 197 203 191 192 195
156 148 250 318 301 261 230 217 202 193 188 207 218 260 323 356 349 327 297 290 292 298 314 323 7 75 148 174 182 186 186 192 188 164 156 164 173 175 193 206 206 193 192 197
145 172 197 220 236 215 230 230 204 187 209 231 234 256 289 313 318 315 310 304 298 291 276 283 36 1 345 326 201 203 229 201 168 153 153 177 204 204 211 207 198 197 195 197
149 211 235 254 262 245 238 235 217 216 220 228 250 253 262 272 279 284 286 300 314 315 327 296 237 284 319 331 325 272 236 210 165 160 171 207 221 198 190 198 201 193 194 204
169 203 230 270 266 265 263 249 229 230 232 241 260 266 263 271 273 284 282 283 288 294 300 292 272 271 289 296 286 267 232 214 152 165 201 224 182 149 178 207 210 192 200 208
182 173 199 259 283 304 260 231 214 218 216 214 239 252 268 271 274 266 254 259 273 281 284 278 275 260 265 268 256 238 230 175 151 170 198 218 155 167 227 200 164 208 220 209
178 180 193 225 171 239 246 207 203 215 231 223 237 253 247 251 266 265 234 238 270 288 291 297 298 300 303 313 325 347 79 94 112 98 11 348 223 232 241 209 235 249 228 216
191 177 186 189 231 265 278 237 189 203 245 230 236 250 256 262 310 298 322 331 275 281 295 293 299 301 329 350 10 62 74 77 62 342 313 300 261 248 231 229 247 261 235 244
186 180 186 197 220 242 251 237 211 164 258 237 223 235 221 171 244 262 327 360 2 354 352 342 342 8 15 357 43 84 55 46 315 299 300 296 269 244 239 244 255 276 244 248
171 191 206 216 234 255 251 235 137 189 249 257 218 212 190 209 231 236 324 346 357 356 359 8 19 26 358 346 56 82 32 315 314 320 320 313 300 272 256 263 268 234 253 262
184 189 202 196 223 247 212 152 190 223 260 151 216 189 183 209 170 266 311 346 359 360 6 13 19 13 359 360 27 34 321 327 339 334 324 320 321 311 297 239 260 222 198 223
201 197 194 200 220 252 182 201 219 189 208 274 235 211 168 172 210 254 291 321 339 344 348 2 18 3 0 360 6 310 328 346 340 337 323 323 328 321 298 236 231 229 215 228
233 199 194 236 254 251 251 251 269 226 227 257 222 199 166 187 221 240 252 292 320 329 340 355 11 3 355 356 359 352 347 342 331 316 313 318 315 318 318 293 256 238 233 241
210 182 203 236 250 272 266 244 245 276 292 324 288 177 181 183 217 228 250 274 290 313 331 339 339 330 328 342 349 354 356 346 319 295 290 294 290 285 295 293 273 261 258 253
201 195 204 229 228 221 242 241 206 192 224 215 194 264 116 164 200 218 233 265 285 298 320 325 321 318 316 326 331 337 343 327 279 277 276 268 266 268 268 284 310 307 293 297